Location: Cincinnati Observatory Center
(39.1389°N, 84.4225°W)
Time: 21:39:52
(UTC-04:00)

Amateur Radio Satellites - All Passes

Search period start: 22 July 2014 21:09
Search period end: 23 July 2014 21:09
Location: Cincinnati Observatory Center, 39.1389°N, 84.4225°W

Satellite Date Start Highest point End Downlink Frequencies (MHz)
Time Altitude Azimuth
HO-68 22 Jul 21:33:20 21:40:26 67° 70° (ENE) 21:47:32 435.675 MHz FM
AO-40 22 Jul 21:43:46 04:49:04 40° 183° (S) 10:20:52 Beacon 2401.320
RS-15 22 Jul 21:47:16 21:55:14 22° 23° (NNE) 22:03:16 29.354 - 29.394 USB, Beacon 29.352 USB
STRAND 1 22 Jul 21:52:27 21:55:44 17° 297° (WNW) 21:58:59 ?
Oscar 11 22 Jul 22:23:47 22:28:01 60° 75° (ENE) 22:32:16 145.825 FM, Beacon 2401.500 USB
FUNcube-1 22 Jul 22:26:41 22:30:10 23° 69° (ENE) 22:33:36 145.950 - 145.970 MHz USB
MaSat-1 22 Jul 22:27:46 22:28:22 10° 97° (E) 22:28:59 437.345 MHz
SO-50 22 Jul 23:17:44 23:21:58 31° 50° (NE) 23:26:15 436.795 FM
HO-68 22 Jul 23:23:23 23:28:37 22° 267° (W) 23:33:53 435.675 MHz FM
RS-15 22 Jul 23:59:39 00:10:33 60° 52° (NE) 00:21:48 29.354 - 29.394 USB, Beacon 29.352 USB
MaSat-1 23 Jul 00:01:06 00:04:52 57° 298° (WNW) 00:09:19 437.345 MHz
FUNcube-1 23 Jul 00:02:35 00:06:26 29° 263° (W) 00:10:14 145.950 - 145.970 MHz USB
Oscar 11 23 Jul 00:03:34 00:04:34 11° 270° (W) 00:05:35 145.825 FM, Beacon 2401.500 USB
UOSAT-12 23 Jul 00:18:19 00:20:17 12° 39° (NE) 00:22:15 437.025 FM, 437.400 FM
SO-50 23 Jul 00:58:18 01:02:30 31° 247° (WSW) 01:06:43 436.795 FM
Lituanica SAT-1 23 Jul 01:29:06 01:31:15 71° 322° (NW) 01:33:25 437.275 MHz beacon
UOSAT-12 23 Jul 01:56:30 02:01:15 78° 58° (ENE) 02:05:54 437.025 FM, 437.400 FM
Sapphire 23 Jul 02:03:56 02:07:56 21° 106° (ESE) 02:11:56 437.095 MHz 1200 baud AX-25 AFSK
ISS 23 Jul 02:08:30 02:11:28 30° 134° (SE) 02:14:27 145.800 FM
RS-15 23 Jul 02:12:34 02:22:25 39° 253° (WSW) 02:32:38 29.354 - 29.394 USB, Beacon 29.352 USB
PCSat 23 Jul 02:36:40 02:41:48 46° 112° (ESE) 02:46:58 145.825 MHz
Oscar 19 23 Jul 02:41:53 02:46:38 36° 98° (E) 02:51:22 437.125 CW, 437.150 USB
Oscar 16 23 Jul 03:08:47 03:13:57 70° 102° (ESE) 03:19:05 437.025 USB, Beacon 2401.1428
ITAMSAT 1 23 Jul 03:15:56 03:20:40 35° 97° (E) 03:25:20 435.822 SSB
Gurwin Techsat 1B 23 Jul 03:19:15 03:22:14 15° 91° (E) 03:25:13 435.225 FM
JAS-1B 23 Jul 03:23:48 03:32:15 34° 92° (E) 03:39:44 435.800 - 435.900 CW/SSB
AO-27 23 Jul 03:33:06 03:38:11 52° 100° (E) 03:43:13 436.795 MHz FM
Uribyol 2 23 Jul 03:36:52 03:41:59 60° 101° (E) 03:47:03 436.500 FM
OPAL 23 Jul 03:37:21 03:40:58 21° 63° (ENE) 03:44:36 ?
UOSAT-12 23 Jul 03:39:30 03:40:42 11° 254° (WSW) 03:41:54 437.025 FM, 437.400 FM
ISS 23 Jul 03:45:09 03:48:10 31° 330° (NNW) 03:51:13 145.800 FM
Sapphire 23 Jul 03:45:44 03:50:57 50° 303° (WNW) 03:56:13 437.095 MHz 1200 baud AX-25 AFSK
AO-Echo 23 Jul 03:50:57 03:56:09 82° 103° (ESE) 04:01:08 ?
PCSat 23 Jul 04:20:57 04:25:25 26° 310° (NW) 04:29:55 145.825 MHz
Oscar 19 23 Jul 04:21:34 04:25:47 26° 293° (WNW) 04:30:00 437.125 CW, 437.150 USB
TMSAT-1 23 Jul 04:37:17 04:42:33 62° 101° (E) 04:47:46 436.925 FM
Oscar 16 23 Jul 04:50:00 04:52:41 14° 298° (WNW) 04:55:21 437.025 USB, Beacon 2401.1428
ITAMSAT 1 23 Jul 04:55:41 05:00:00 27° 293° (WNW) 05:04:17 435.822 SSB
Gurwin Techsat 1B 23 Jul 04:57:22 05:02:37 63° 287° (WNW) 05:07:51 435.225 FM
AO-7 23 Jul 05:07:00 05:14:08 31° 96° (E) 05:21:12 29.400 - 29.500 MHz
JAS-1B 23 Jul 05:13:41 05:23:06 58° 292° (WNW) 05:31:23 435.800 - 435.900 CW/SSB
AO-27 23 Jul 05:13:42 05:17:16 19° 297° (WNW) 05:20:48 436.795 MHz FM
OPAL 23 Jul 05:14:50 05:19:33 44° 259° (WSW) 05:24:17 ?
Uribyol 2 23 Jul 05:17:45 05:20:57 17° 297° (WNW) 05:24:08 436.500 FM
ISS 23 Jul 05:24:37 05:25:45 11° 350° (N) 05:26:53 145.800 FM
AO-Echo 23 Jul 05:32:09 05:34:08 12° 300° (WNW) 05:36:05 ?
Uosat F 23 Jul 05:42:04 05:47:02 58° 101° (E) 05:51:57 435.120 FM
TMSAT-1 23 Jul 06:18:40 06:21:56 17° 298° (WNW) 06:25:11 436.925 FM
AO-7 23 Jul 06:59:08 07:07:14 57° 294° (WNW) 07:15:16 29.400 - 29.500 MHz
ISS 23 Jul 07:02:30 07:03:43 12° 11° (N) 07:04:56 145.800 FM
JAS-1B 23 Jul 07:07:00 07:11:20 14° 313° (NW) 07:15:31 435.800 - 435.900 CW/SSB
JAS-2 23 Jul 07:17:25 07:22:57 33° 94° (E) 07:27:56 435.800 - 435.900 CW/SSB, 435.910 FM
Uosat F 23 Jul 07:22:14 07:25:20 17° 297° (WNW) 07:28:24 435.120 FM
STRAND 1 23 Jul 07:26:42 07:31:50 73° 74° (ENE) 07:36:59 ?
Hamsat 23 Jul 07:34:34 07:38:50 70° 101° (ESE) 07:43:07 145.90 MHz
KITSAT 1 23 Jul 07:39:07 07:46:37 43° 110° (ESE) 07:54:07 435.175 FM
Lituanica SAT-1 23 Jul 07:43:36 07:45:46 53° 36° (NE) 07:47:56 437.275 MHz beacon
SO-67 23 Jul 07:46:43 07:47:37 11° 91° (E) 07:48:30 435.3500 MHz FM
MaSat-1 23 Jul 08:20:26 08:25:08 30° 56° (NE) 08:29:41 437.345 MHz
PANSAT 23 Jul 08:21:13 08:21:44 10° 164° (SSE) 08:22:14 not established
Oscar 10/S400 23 Jul 08:36:57 09:42:56 20° 259° (WSW) 11:52:36 145.825 - 145.975 CW/USB, Beacon 145.810 USB
ISS 23 Jul 08:38:12 08:41:17 32° 30° (NNE) 08:44:21 145.800 FM
AO-7 23 Jul 08:55:20 08:58:13 12° 314° (NW) 09:01:06 29.400 - 29.500 MHz
JAS-2 23 Jul 09:02:27 09:07:59 33° 295° (WNW) 09:12:58 435.800 - 435.900 CW/SSB, 435.910 FM
HO-68 23 Jul 09:06:09 09:08:09 11° 88° (E) 09:10:07 435.675 MHz FM
STRAND 1 23 Jul 09:09:31 09:11:31 12° 270° (W) 09:13:31 ?
Hamsat 23 Jul 09:13:34 09:14:13 10° 297° (WNW) 09:14:52 145.90 MHz
SO-67 23 Jul 09:17:37 09:20:51 37° 286° (WNW) 09:24:04 435.3500 MHz FM
KITSAT 1 23 Jul 09:34:20 09:41:58 44° 309° (NW) 09:49:39 435.175 FM
MaSat-1 23 Jul 09:57:42 10:02:33 37° 253° (WSW) 10:07:11 437.345 MHz
PANSAT 23 Jul 09:58:44 10:01:12 16° 177° (S) 10:03:40 not established
Saudisat 1A 23 Jul 10:09:21 10:13:46 90° 122° (ESE) 10:18:13 436.775 MHz
Oscar 11 23 Jul 10:14:40 10:16:18 12° 91° (E) 10:17:56 145.825 FM, Beacon 2401.500 USB
ISS 23 Jul 10:15:02 10:17:58 28° 226° (SW) 10:20:53 145.800 FM
HO-68 23 Jul 10:49:42 10:56:52 77° 105° (ESE) 11:04:00 435.675 MHz FM
Sapphire 23 Jul 10:52:31 10:55:58 17° 45° (NE) 10:59:24 437.095 MHz 1200 baud AX-25 AFSK
PCSat 23 Jul 11:25:47 11:30:35 31° 52° (NE) 11:35:21 145.825 MHz
KITSAT 1 23 Jul 11:36:20 11:39:52 13° 335° (NNW) 11:43:24 435.175 FM
PANSAT 23 Jul 11:38:41 11:40:44 14° 190° (S) 11:42:47 not established
Oscar 11 23 Jul 11:48:34 11:52:48 55° 286° (WNW) 11:57:02 145.825 FM, Beacon 2401.500 USB
Saudisat 1A 23 Jul 11:52:03 11:54:00 13° 319° (NW) 11:55:57 436.775 MHz
FUNcube-1 23 Jul 11:52:15 11:56:20 55° 100° (E) 12:00:26 145.950 - 145.970 MHz USB
Sapphire 23 Jul 12:34:36 12:40:03 80° 244° (WSW) 12:45:27 437.095 MHz 1200 baud AX-25 AFSK
HO-68 23 Jul 12:38:50 12:43:48 21° 303° (WNW) 12:48:45 435.675 MHz FM
Oscar 16 23 Jul 12:49:56 12:51:15 11° 59° (ENE) 12:52:33 437.025 USB, Beacon 2401.1428
PCSat 23 Jul 13:09:04 13:14:01 37° 250° (WSW) 13:18:56 145.825 MHz
AO-Echo 23 Jul 13:27:34 13:29:30 12° 60° (ENE) 13:31:26 ?
FUNcube-1 23 Jul 13:30:40 13:32:16 12° 296° (WNW) 13:33:52 145.950 - 145.970 MHz USB
SO-50 23 Jul 13:35:06 13:36:15 11° 107° (ESE) 13:37:25 436.795 FM
Oscar 19 23 Jul 13:57:42 14:02:34 47° 71° (ENE) 14:07:28 437.125 CW, 437.150 USB
JAS-1B 23 Jul 14:06:19 14:13:21 28° 57° (ENE) 14:21:01 435.800 - 435.900 CW/SSB
TMSAT-1 23 Jul 14:21:51 14:23:09 11° 59° (ENE) 14:24:27 436.925 FM
RS-15 23 Jul 14:22:25 14:32:29 41° 108° (ESE) 14:42:18 29.354 - 29.394 USB, Beacon 29.352 USB
Oscar 16 23 Jul 14:24:41 14:29:48 90° 76° (ENE) 14:34:57 437.025 USB, Beacon 2401.1428
ITAMSAT 1 23 Jul 14:32:45 14:37:45 48° 71° (ENE) 14:42:45 435.822 SSB
Gurwin Techsat 1B 23 Jul 14:39:00 14:43:03 23° 65° (ENE) 14:47:07 435.225 FM
AO-27 23 Jul 14:50:04 14:55:16 72° 74° (ENE) 15:00:29 436.795 MHz FM
Uribyol 2 23 Jul 14:53:35 14:58:47 80° 75° (ENE) 15:04:01 436.500 FM
AO-Echo 23 Jul 15:02:11 15:07:26 89° 257° (WSW) 15:12:48 ?
SO-50 23 Jul 15:11:43 15:16:09 71° 303° (WNW) 15:20:42 436.795 FM
KITSAT 1 23 Jul 15:33:38 15:39:26 21° 37° (NE) 15:45:12 435.175 FM
Oscar 19 23 Jul 15:38:33 15:42:08 19° 267° (W) 15:45:44 437.125 CW, 437.150 USB
JAS-1B 23 Jul 15:54:28 16:02:47 75° 258° (WSW) 16:12:27 435.800 - 435.900 CW/SSB
TMSAT-1 23 Jul 15:56:55 16:02:13 85° 76° (ENE) 16:07:33 436.925 FM
AO-7 23 Jul 16:04:42 16:12:14 40° 61° (ENE) 16:19:47 29.400 - 29.500 MHz
UOSAT-12 23 Jul 16:07:05 16:11:03 30° 113° (ESE) 16:15:06 437.025 FM, 437.400 FM
ITAMSAT 1 23 Jul 16:13:45 16:17:28 20° 267° (W) 16:21:12 435.822 SSB
Gurwin Techsat 1B 23 Jul 16:17:39 16:22:42 44° 261° (W) 16:27:47 435.225 FM
AO-27 23 Jul 16:33:00 16:35:16 13° 270° (W) 16:37:32 436.795 MHz FM
RS-15 23 Jul 16:33:32 16:44:24 57° 309° (NW) 16:55:09 29.354 - 29.394 USB, Beacon 29.352 USB
Uribyol 2 23 Jul 16:37:27 16:38:50 11° 270° (W) 16:40:13 436.500 FM
Uosat F 23 Jul 16:54:08 16:59:08 71° 74° (ENE) 17:04:11 435.120 FM
SO-50 23 Jul 16:56:28 16:57:34 11° 322° (NW) 16:58:41 436.795 FM
OPAL 23 Jul 17:25:20 17:30:15 51° 102° (ESE) 17:35:12 ?
KITSAT 1 23 Jul 17:28:06 17:36:13 78° 60° (ENE) 17:44:16 435.175 FM
JAS-2 23 Jul 17:28:18 17:33:22 19° 59° (ENE) 17:38:18 435.800 - 435.900 CW/SSB, 435.910 FM
TMSAT-1 23 Jul 17:41:54 17:42:46 10° 271° (W) 17:43:38 436.925 FM
UOSAT-12 23 Jul 17:47:02 17:51:08 31° 310° (NW) 17:55:19 437.025 FM, 437.400 FM
JAS-1B 23 Jul 17:50:51 17:55:00 14° 278° (W) 17:59:26 435.800 - 435.900 CW/SSB
AO-7 23 Jul 17:56:54 18:04:49 47° 259° (W) 18:12:49 29.400 - 29.500 MHz
Hamsat 23 Jul 18:26:58 18:30:54 41° 73° (ENE) 18:34:50 145.90 MHz
Uosat F 23 Jul 18:36:28 18:38:25 12° 270° (W) 18:40:21 435.120 FM
Saudisat 1A 23 Jul 18:37:15 18:41:34 51° 55° (NE) 18:45:50 436.775 MHz
RS-15 23 Jul 18:52:09 18:59:53 21° 339° (NNW) 19:07:38 29.354 - 29.394 USB, Beacon 29.352 USB
Oscar 10/S400 23 Jul 18:54:00 19:06:17 18° 142° (SE) 19:18:53 145.825 - 145.975 CW/USB, Beacon 145.810 USB
OPAL 23 Jul 19:05:15 19:08:45 19° 298° (WNW) 19:12:17 ?
JAS-2 23 Jul 19:09:34 19:17:27 89° 75° (ENE) 19:25:05 435.800 - 435.900 CW/SSB, 435.910 FM
KITSAT 1 23 Jul 19:25:06 19:30:42 21° 257° (WSW) 19:36:18 435.175 FM
STRAND 1 23 Jul 19:39:06 19:43:23 27° 96° (E) 19:47:38 ?
SO-67 23 Jul 19:49:20 19:52:43 53° 75° (ENE) 19:56:07 435.3500 MHz FM
Hamsat 23 Jul 20:04:43 20:07:03 15° 268° (W) 20:09:24 145.90 MHz
Saudisat 1A 23 Jul 20:18:07 20:20:43 16° 251° (WSW) 20:23:18 436.775 MHz
JAS-2 23 Jul 20:58:18 21:03:08 17° 271° (W) 21:07:56 435.800 - 435.900 CW/SSB, 435.910 FM
